Location: Bednik
(45.3500°N, 16.3833°E)
Time: 07:08:10
(UTC+00:00)

Cosmos 2322 Rocket - Pass Details

Date: 08 August 2020
Orbit: 831 x 852 km, 71.0° (Epoch: 26 September)

Event Time Altitude Azimuth Distance (km) Brightness Sun altitude
Rises 20:13:52 0° 340° (NNW) 3,416 6.6 -18.2°
Reaches altitude 10° 20:16:42 10° 352° (N) 2,481 5.4 -18.5°
Maximum altitude 20:21:31 27° 50° (NE) 1,567 3.6 -19.1°
Enters shadow 20:24:05 20° 90° (E) 1,872 3.6 -19.4°
